Powrót do katalogu

FENGYUN 1C DEB

LostPO
NORAD 37688·DEBRIS·🇨🇳 China

Wystrzelony May 10, 1999 z Taiyuan Satellite Launch Center

Loading…

Następne Przeloty (najbliższe 24 godziny)

TLE

NieaktualneSource: Space-Track

Epoka: May 9, 2024, 07:34 UTC

1 37688U 99025ELD 24130.31556343  .00018625  00000-0  59985-2 0  9997
2 37688  99.0178 256.0521 0033866 355.7759   4.3136 14.38959928801921

Śledź FENGYUN 1C DEB w czasie rzeczywistym z AllMySat

Download on the App Store